Details for UPS at KSDF




Go Back


Latest METAR
Local Time

KSDF 220956Z 03009G19KT 10SM BKN042 OVC180 20/13 A3016 RMK AO2 SLP208 T02000133
22/09/2018, 06:52:20

Description
Results
UPS Logo
Number of Pilots based at KSDF
0 Pilots Based here
Number of UPS Flights Departed from KSDF
0 Flights Departed
Number of UPS Flights Arrived at KSDF
0 Flights Arrived
Number of UPS Schedules Departing from KSDF
1068 Schedules
Number of UPS Schedules Arriving at KSDF
1061 Schedules
Number of UPS Schedules Departing from KSDF availible today
80 Schedules Today
Number of UPS Schedules Arriving at KSDF availible today
30 Schedules Today
Average Landing Rate at KSDF
0 fpm
UPS Average Landing Rate at KSDF
0 fpm
Total Fuel Purchased at KSDF by UPS
0.00 kgs / 0.00 lbs

Pilots Based at KSDF


Pilot ID
Pilot Name
Pilot Rank
No. of Flights
No. of Flying Hours
There are no pilots assigned to this hub!   Will you be the first?
Content